Theta_e
303 303 301 299 299 299 299 299 300 304 311 314 316 318 318 316 315 318 319 320 312 308 308 309 311 310 309 310 309 319 317 311 310 313 315 315 315 315 316 313 312 313 314 313 313 316 324
305 304 304 301 300 299 299 299 299 299 299 303 311 315 317 318 316 315 315 320 316 308 308 309 311 311 309 309 312 319 315 311 310 312 315 315 316 316 315 315 313 314 313 315 317 323 323
308 307 306 305 302 302 300 299 299 299 299 299 300 307 312 317 317 314 315 318 319 310 308 308 311 311 308 310 310 320 317 312 312 313 313 314 314 315 316 316 315 316 316 318 321 323 324
305 307 307 306 305 302 304 302 299 299 299 299 298 299 304 312 315 315 315 316 320 313 308 308 311 312 309 309 310 320 319 316 313 312 313 314 316 316 315 316 315 315 315 321 320 321 322
303 302 305 307 306 306 305 306 303 299 299 299 299 298 299 306 314 311 316 315 318 316 308 309 311 310 309 309 309 313 319 317 317 317 315 315 316 315 315 316 316 315 318 321 321 321 323
301 302 303 303 306 307 305 305 306 304 299 299 299 299 298 306 312 309 315 314 317 311 310 312 313 311 312 310 312 313 317 315 317 318 316 316 315 316 315 316 319 318 318 318 322 321 322
301 301 301 302 303 305 307 306 305 306 304 299 299 299 298 303 313 309 315 315 310 311 314 316 312 311 309 310 315 316 317 317 318 317 318 314 317 318 317 315 316 317 316 317 318 317 322
302 302 301 300 301 302 305 307 305 306 306 304 300 299 299 301 312 311 315 316 311 313 314 314 312 314 316 313 316 316 317 317 316 317 314 316 318 315 313 314 316 317 317 318 317 314 319
300 301 302 301 300 299 302 305 307 304 305 306 304 300 299 301 310 311 313 313 313 316 316 315 312 312 312 314 316 316 316 317 316 316 316 318 317 314 315 316 317 318 318 318 318 315 316
301 300 300 301 301 300 298 301 305 306 304 305 305 306 300 302 308 310 311 312 317 315 313 312 314 315 315 315 317 315 316 317 315 317 315 316 314 315 316 317 316 319 317 317 317 316 319
301 302 301 301 301 301 300 299 301 305 305 304 305 306 304 304 313 312 315 316 315 316 313 313 319 317 316 316 314 315 316 315 315 315 316 317 317 317 317 318 317 319 317 318 318 317 318
301 301 302 302 301 301 301 299 298 301 305 304 305 304 304 304 311 312 317 315 316 318 315 312 317 318 318 315 315 314 316 315 314 315 315 315 315 317 318 316 316 316 317 317 316 318 321
302 302 302 302 302 302 302 301 298 299 302 305 303 304 304 302 309 310 315 316 319 321 313 313 318 315 315 314 314 314 315 315 316 317 317 316 316 316 317 318 317 317 320 321 321 322 322
302 303 303 302 303 303 302 301 300 297 300 305 303 303 305 303 309 308 313 315 322 316 316 315 315 314 316 313 314 314 315 317 312 314 315 318 318 317 317 318 319 318 320 323 320 322 319
303 303 303 303 303 303 303 302 301 299 299 303 303 302 303 303 307 312 314 317 315 316 316 317 314 314 314 313 313 315 315 317 315 313 318 317 316 315 317 318 318 317 320 316 319 317 322
304 303 303 303 303 303 303 302 302 299 297 301 303 302 302 303 307 311 314 314 316 316 318 320 318 315 316 315 315 315 315 314 314 312 314 317 317 318 318 318 316 317 316 321 319 322 321
304 303 304 303 303 303 303 303 302 300 298 299 303 303 302 302 305 310 311 313 313 315 317 320 321 321 316 316 315 315 315 313 313 311 313 315 317 316 319 320 320 318 318 315 318 318 322
302 304 303 303 304 303 303 303 303 300 298 300 301 302 302 302 306 309 310 311 312 313 315 316 318 321 321 315 314 315 316 316 313 313 316 316 317 318 319 316 316 317 318 317 323 319 316
298 301 301 304 302 303 303 303 302 300 298 302 301 302 303 302 306 309 310 311 311 313 314 316 317 319 318 317 315 315 314 313 312 314 317 316 316 318 317 316 316 319 316 315 314 315 318
298 297 297 299 301 302 303 303 302 300 299 301 302 303 305 304 306 308 309 311 312 312 313 314 316 317 318 318 315 314 315 315 313 313 314 315 315 318 318 318 316 318 317 315 318 320 320
300 299 299 297 299 302 303 303 301 300 299 301 301 304 306 306 306 308 308 309 311 312 313 313 315 315 319 318 316 316 316 318 316 315 314 317 317 314 314 313 315 317 317 316 317 318 321
300 300 300 298 297 300 304 304 301 300 299 300 301 304 305 306 305 306 308 310 311 312 312 314 314 315 315 319 318 317 318 318 318 316 316 314 317 314 315 314 315 317 317 316 316 314 315
300 299 301 300 297 298 302 302 301 300 299 300 301 303 305 306 307 307 306 309 311 311 312 312 313 313 315 315 316 315 315 315 317 318 316 316 315 316 318 313 315 318 316 316 316 315 317
299 300 301 301 299 298 300 302 301 300 299 300 301 302 305 307 308 306 306 308 309 311 312 311 313 314 313 312 314 316 315 316 315 315 314 313 314 313 317 313 321 318 313 315 317 315 314
300 301 300 301 299 299 299 301 301 300 298 300 301 302 304 306 307 308 307 306 309 310 312 312 313 313 313 312 316 316 316 317 315 313 315 312 313 313 319 318 316 314 314 315 316 317 313
301 302 301 300 299 299 299 301 300 300 299 299 301 302 304 306 306 307 307 307 308 311 311 311 312 313 312 311 312 319 321 319 319 317 312 310 310 319 312 319 321 318 314 311 312 317 312
301 301 300 300 300 300 302 302 300 299 300 300 300 302 303 304 305 307 309 308 308 309 311 310 311 312 311 309 313 314 319 317 320 320 318 315 313 317 312 320 317 314 311 311 318 320 312
301 301 301 300 301 300 302 301 300 300 300 300 300 300 302 303 304 305 308 309 308 309 309 309 311 311 310 312 314 315 314 316 316 316 317 320 319 319 313 318 322 311 309 316 317 311 312
300 301 301 301 302 302 301 301 302 300 300 299 299 300 300 302 303 305 306 309 308 308 308 309 309 310 310 313 311 310 313 311 314 319 311 320 318 320 319 322 316 310 314 313 313 312 311
Wind_Speed
27 27 26 26 25 24 24 24 24 26 28 27 24 23 22 20 21 20 19 19 20 19 21 20 20 19 15 7 5 3 1 4 9 12 10 6 6 2 1 3 2 5 6 4 7 2 5
28 29 27 28 27 26 25 25 24 23 22 26 27 25 23 21 21 19 18 18 20 20 20 20 20 19 13 6 6 5 3 6 9 13 10 5 2 2 2 4 4 2 6 10 2 7 7
27 30 29 28 28 28 27 26 25 23 21 22 23 25 24 21 21 19 18 17 19 20 21 19 19 19 16 16 8 9 7 8 9 10 7 2 2 2 6 3 5 6 3 2 2 5 4
30 26 29 31 29 30 28 28 27 24 22 21 21 22 24 21 20 21 17 16 18 21 21 21 19 18 10 9 14 14 11 9 8 9 6 3 2 6 3 7 4 2 2 1 0 2 1
30 35 32 28 31 29 27 26 28 28 24 21 20 20 21 18 18 18 19 16 18 21 23 20 16 9 9 7 14 16 15 7 6 7 6 5 4 2 1 3 3 4 0 2 2 7 4
32 33 33 35 30 31 31 28 25 27 27 23 21 18 19 17 16 15 16 14 18 20 19 14 14 6 13 5 8 12 17 14 6 7 5 5 2 0 1 1 1 1 1 1 3 4 3
33 30 32 33 37 32 32 31 28 25 26 27 23 20 18 16 15 13 13 11 11 6 6 9 4 6 3 4 8 12 15 16 11 6 4 2 2 6 9 6 3 2 1 1 1 1 3
41 38 35 31 33 39 32 32 31 26 24 25 25 24 19 15 14 10 11 8 8 8 11 18 20 28 28 15 5 11 16 12 9 4 5 2 5 5 2 2 5 3 1 0 2 4 4
44 44 41 38 35 31 41 33 32 32 27 23 23 25 22 16 13 12 10 10 11 9 6 12 18 18 25 19 12 14 21 12 6 6 8 4 4 5 5 2 5 4 3 3 2 2 3
48 47 45 45 39 38 34 45 33 32 29 25 23 19 20 14 12 11 10 6 9 10 3 6 6 7 14 12 6 18 25 13 3 10 9 5 1 4 4 4 4 3 8 2 4 2 2
52 50 50 47 45 40 36 35 44 33 31 29 24 21 18 18 9 6 5 2 4 4 4 3 4 4 11 16 11 18 24 9 8 7 6 5 6 4 3 6 7 5 4 2 3 3 1
51 52 51 50 48 44 39 36 36 43 33 30 29 25 21 23 23 14 12 5 4 1 7 2 7 6 7 6 4 10 11 8 6 4 1 4 2 5 5 2 5 6 2 6 3 2 1
50 51 51 52 51 47 41 39 36 38 39 33 31 25 24 26 23 22 12 2 3 6 3 2 3 4 6 5 3 5 9 6 6 5 4 1 3 1 3 2 1 3 3 2 1 1 3
52 52 52 53 51 49 44 40 38 36 43 32 29 25 26 30 17 22 16 3 9 6 10 1 2 3 7 6 5 3 8 11 3 4 3 6 3 6 4 5 6 3 5 4 3 3 2
52 53 53 51 52 50 47 42 39 37 40 38 27 29 30 30 28 21 18 11 8 9 5 2 2 1 4 4 6 4 6 12 10 7 5 5 4 2 2 2 2 4 3 1 6 2 1
55 53 54 53 52 51 49 45 40 37 36 40 34 31 36 30 30 29 9 18 8 6 5 4 6 4 8 7 7 12 7 5 6 9 5 7 2 1 0 3 5 2 7 3 1 4 3
54 53 52 53 53 51 50 48 41 37 37 40 35 19 17 29 33 21 14 13 8 11 5 4 3 3 4 5 7 5 10 3 8 7 4 4 3 1 2 4 8 3 2 3 4 2 3
45 48 49 50 55 53 51 51 45 40 36 38 28 7 17 25 20 14 19 11 7 11 5 2 3 4 3 3 6 7 11 9 18 16 9 6 5 4 6 1 1 3 4 4 3 4 1
41 42 44 46 49 54 52 54 48 44 43 44 18 14 20 36 14 16 14 15 9 8 10 7 5 5 1 1 3 6 6 6 17 9 10 7 1 2 2 1 2 3 4 4 4 3 6
46 45 44 43 45 53 52 59 52 49 46 46 15 8 17 35 43 22 18 20 19 19 11 7 4 3 2 3 3 2 5 3 15 7 13 15 4 6 10 6 5 4 6 6 5 3 4
50 49 46 45 44 45 54 60 55 54 51 49 16 7 16 14 23 22 20 14 26 12 11 19 6 12 2 5 3 4 2 1 3 6 6 5 7 6 5 5 6 6 5 10 10 7 7
50 51 51 48 47 45 55 62 59 56 53 45 11 8 13 18 36 25 14 21 26 24 16 13 9 14 14 7 7 5 4 2 3 1 6 1 5 5 3 3 6 5 7 10 10 2 8
49 49 54 49 48 45 45 62 61 60 60 34 28 25 18 17 21 18 24 19 18 20 15 15 15 3 7 17 17 14 16 10 6 3 2 4 7 4 4 2 3 5 7 10 5 5 5
52 48 53 54 51 46 44 67 62 63 65 38 31 25 14 6 13 19 20 18 22 24 12 20 16 12 6 17 9 1 5 2 6 3 7 6 4 2 3 2 5 3 2 3 11 5 9
38 47 47 53 51 46 45 66 62 64 65 45 35 24 12 4 10 14 18 24 14 23 19 18 14 11 8 5 2 4 3 3 1 1 4 3 5 3 5 5 3 2 5 7 7 14 10
36 44 48 49 48 47 47 65 58 60 66 49 34 33 19 7 3 21 18 23 16 11 7 19 10 16 3 2 2 5 5 2 4 3 3 4 3 4 3 5 9 5 4 8 4 12 8
28 44 44 44 44 45 60 68 56 60 68 44 34 30 21 5 5 16 15 18 28 12 5 8 18 7 10 2 2 4 4 7 3 7 6 3 2 6 3 3 6 6 5 12 6 14 13
33 39 40 39 42 50 66 53 55 59 66 42 30 40 24 2 7 5 13 22 23 33 9 11 11 9 3 5 4 3 3 5 3 3 6 7 7 4 3 2 8 12 8 10 8 5 15
34 35 38 38 49 59 53 55 69 55 66 46 31 24 21 15 5 7 14 17 21 36 30 29 11 11 14 4 3 2 2 1 6 8 0 4 6 6 9 7 2 25 8 23 7 8 11
Wind_Direction
273 271 270 269 270 269 269 269 268 266 265 266 269 272 275 284 287 294 305 313 316 314 313 317 323 328 331 306 240 217 353 119 153 154 155 143 128 156 153 242 248 226 272 291 289 232 99
273 271 272 269 268 268 270 270 272 271 271 268 265 266 272 279 283 290 299 306 312 312 310 313 317 321 319 274 218 190 153 132 163 165 172 149 97 317 260 242 221 264 278 303 219 145 133
276 276 271 270 265 269 267 265 267 270 273 276 274 264 264 269 277 284 292 301 306 308 306 306 310 312 298 271 226 194 168 153 164 168 196 186 310 319 320 269 277 282 299 2 111 171 164
265 269 275 273 268 263 267 269 263 262 266 269 275 279 265 264 274 282 289 296 304 304 301 299 301 301 266 256 213 199 187 166 166 184 196 221 278 299 239 296 322 343 104 255 346 192 85
274 261 261 268 271 266 262 264 267 260 257 261 268 276 278 265 272 280 288 294 302 300 295 292 291 281 262 232 224 211 204 189 194 191 187 215 302 260 277 354 329 22 314 80 187 190 149
274 271 266 259 262 268 263 261 261 264 257 253 258 264 275 266 267 272 287 298 302 293 288 281 259 274 242 195 186 200 206 210 191 151 173 198 181 234 92 117 248 340 359 309 235 171 148
277 272 272 267 254 255 264 261 258 259 261 252 250 255 260 262 261 272 298 319 306 286 266 235 236 250 215 198 213 209 196 190 183 188 161 138 171 222 238 194 216 145 184 233 261 217 152
274 274 274 270 264 250 251 256 259 253 256 254 245 247 251 252 255 263 288 288 300 301 302 278 260 255 251 252 303 216 193 159 167 166 125 110 231 216 201 185 229 163 177 282 301 340 193
268 266 268 268 270 262 249 246 256 253 248 251 247 241 246 241 242 254 269 283 287 293 274 280 245 243 241 231 220 231 191 180 146 151 177 180 204 112 147 199 219 172 174 204 240 97 64
271 270 267 266 263 265 262 247 244 251 246 244 243 241 236 228 240 257 263 271 280 274 289 262 221 237 193 178 225 217 199 172 161 180 160 229 204 164 185 212 198 206 177 193 96 182 183
267 265 267 266 264 262 262 252 241 242 245 241 238 226 225 202 187 186 154 157 101 134 294 213 168 157 175 172 151 196 194 188 163 166 144 226 165 172 170 213 162 250 128 164 114 128 138
263 262 261 261 262 259 257 255 249 236 241 239 236 237 210 204 200 174 169 99 167 153 245 301 145 164 141 219 169 152 169 198 166 127 123 225 167 170 196 231 173 147 148 57 61 113 190
262 259 256 257 257 256 251 249 249 237 233 233 235 233 219 201 216 194 187 300 169 213 322 238 200 171 150 170 201 152 171 173 164 149 181 342 219 207 150 126 83 105 71 315 217 110 204
261 259 255 250 252 252 248 244 243 242 229 232 234 223 219 211 191 198 204 179 216 194 231 236 37 121 178 147 225 146 143 186 242 120 134 175 249 179 180 208 168 168 160 177 216 187 168
259 257 254 249 245 246 245 240 236 237 227 228 217 225 224 216 195 176 181 208 212 180 190 280 81 134 223 197 194 151 169 199 188 181 157 146 251 277 163 146 137 144 186 131 105 23 241
260 254 251 248 243 239 240 235 230 232 227 221 203 216 231 217 195 194 203 222 214 193 153 116 189 204 213 184 175 191 172 189 190 195 160 194 156 307 163 134 46 154 135 146 44 170 234
252 249 246 244 240 237 233 229 223 222 223 214 196 187 229 216 201 200 206 215 209 210 111 159 154 267 240 186 186 185 190 231 193 166 145 136 144 241 192 198 171 143 174 60 116 138 196
253 246 241 240 237 232 229 224 217 213 211 206 184 184 194 192 203 204 214 188 201 208 171 142 129 226 224 240 181 185 196 212 181 148 158 187 147 174 200 81 121 153 174 161 138 196 162
257 250 242 236 235 228 223 221 210 206 201 189 189 183 167 184 204 207 210 207 207 189 207 158 190 218 111 305 222 190 193 224 169 150 155 176 182 157 314 101 38 197 183 147 109 99 192
251 245 242 239 231 223 218 216 205 201 198 186 176 173 163 186 211 220 196 204 198 205 229 192 151 219 178 292 207 251 205 229 187 205 201 148 144 171 224 222 166 193 192 184 153 161 185
246 242 236 233 229 221 213 212 204 196 196 183 188 197 202 173 207 221 208 197 195 185 205 198 185 230 169 205 283 231 135 92 120 169 151 149 187 181 224 209 183 199 181 177 199 202 197
242 235 232 226 225 221 207 205 202 192 192 187 173 175 199 172 199 214 230 205 196 194 173 209 186 199 207 227 215 176 90 109 225 233 161 194 188 152 188 146 205 232 207 196 217 224 245
231 231 223 218 216 214 206 196 199 188 183 190 202 198 192 199 175 199 213 211 200 187 215 201 198 207 187 224 247 290 284 242 190 148 211 170 140 138 220 91 148 284 210 192 193 204 191
222 223 215 215 213 208 208 193 195 186 191 191 189 192 186 178 178 197 190 219 209 199 186 213 187 196 245 255 281 10 51 65 180 193 176 157 136 108 155 115 226 249 101 204 219 238 219
218 210 207 209 204 203 201 188 192 186 192 191 190 189 196 191 194 184 191 200 208 207 208 182 186 157 212 357 101 185 322 8 196 82 182 203 134 118 152 201 296 210 200 180 177 251 215
200 196 197 196 196 196 194 187 190 185 189 191 193 190 194 198 223 199 178 190 201 195 173 200 184 206 249 84 127 208 186 149 239 149 107 87 62 159 153 189 223 191 209 161 119 271 198
165 179 185 186 188 193 188 192 185 184 185 185 188 182 184 168 230 204 189 191 195 197 164 151 189 203 211 140 183 210 200 135 226 178 169 121 45 170 156 216 285 245 143 141 155 262 195
168 174 176 176 186 182 183 186 182 180 180 173 172 195 190 157 295 290 196 175 179 203 186 146 156 220 135 170 177 199 193 179 167 230 181 164 157 176 113 142 261 160 120 173 218 212 216
159 163 167 174 175 177 183 175 184 184 181 181 176 182 197 200 253 309 239 208 208 199 179 173 184 162 186 167 189 109 164 153 145 238 15 218 194 178 191 205 204 183 205 201 202 226 209